Location: Gleizolles
(44.4833°N, 6.7667°E)
Time: 20:38:38
(UTC+00:00)

Explorer 7 - Pass Details

Date: 17 June 2024
Orbit: 465 x 619 km, 50.3° (Epoch: 19 July)

Event Time Altitude Azimuth Distance (km) Brightness Sun altitude
Rises 17:30:44 0° 297° (WNW) 2,508 11.9 16.7°
Reaches altitude 10° 17:32:54 10° 297° (WNW) 1,622 11.5 16.4°
Maximum altitude 17:36:33 85° 208° (SSW) 471 6.8 15.7°
Drops below altitude 10° 17:40:11 10° 121° (ESE) 1,621 8.7 15.1°
Sets 17:42:21 0° 121° (ESE) 2,506 9.6 14.8°
